CAPE
1 1 1 nan nan nan nan nan nan nan nan nan nan nan nan nan nan nan nan nan nan nan nan nan nan nan nan nan nan nan nan nan nan nan nan nan nan nan nan nan nan nan nan nan nan nan nan 0 0 0 1 2 2 2 3 4 4 6 8 9 9 10 10 10 10 12 11 12 13 13 13 12 9 9 9 9 10 10 12 13 13 15 18 26 26 37
0 0 nan nan nan nan nan nan nan nan nan nan nan nan nan nan nan nan nan nan nan nan nan nan nan nan nan nan nan nan nan nan nan nan nan nan nan nan nan nan nan nan nan nan nan nan nan 0 0 0 1 1 2 2 3 3 3 5 6 7 7 9 9 9 9 10 10 11 12 12 10 8 8 8 8 10 14 14 15 17 17 21 26 36 36 47
1 0 nan nan nan nan nan nan nan nan nan nan nan nan nan nan nan nan nan nan nan nan nan nan nan nan nan nan nan nan nan nan nan nan nan nan nan nan nan nan nan nan nan nan nan nan 0 0 0 1 1 2 2 2 2 3 3 3 4 5 5 5 7 8 8 7 7 9 8 8 8 7 8 8 11 15 17 17 19 22 22 27 34 44 44 54
1 1 1 nan nan nan nan nan nan nan nan nan nan nan nan 1 3 3 2 nan nan nan nan nan nan nan nan nan nan nan nan nan nan nan nan nan nan nan nan nan nan nan nan nan nan nan 0 0 0 1 1 1 1 1 1 2 2 2 2 3 3 3 4 4 4 5 5 6 6 6 5 7 9 9 11 14 18 18 23 27 27 32 46 53 53 57
0 1 2 0 0 0 nan nan nan nan 0 0 1 1 2 3 3 3 nan nan nan nan nan nan nan nan nan nan nan nan nan nan nan nan nan nan nan nan nan nan nan nan nan nan nan nan 0 0 0 1 1 1 1 1 1 1 1 1 1 1 1 1 1 2 2 3 3 4 4 4 5 7 9 9 12 17 23 23 30 32 32 38 50 58 58 60
0 1 2 1 1 1 3 2 1 1 0 1 1 1 2 1 nan nan nan nan nan nan nan nan nan nan nan nan nan nan nan nan nan nan nan nan nan nan nan nan nan nan nan nan nan nan 0 0 0 0 1 1 0 0 0 0 0 1 1 1 1 1 1 2 2 2 2 3 4 4 5 7 10 10 14 20 28 28 35 36 36 40 48 59 59 66
0 1 2 1 1 1 2 2 1 1 0 0 nan nan nan nan nan nan nan nan nan nan nan nan nan nan nan nan nan nan nan nan nan nan nan nan nan nan nan nan nan nan nan nan nan nan nan 0 0 0 0 0 0 0 0 0 0 0 0 0 0 0 1 2 2 2 3 4 6 6 7 9 13 13 16 22 29 29 36 41 41 44 45 55 55 66
nan nan nan nan nan nan nan nan nan nan nan nan nan nan nan nan nan nan nan nan nan nan nan nan nan nan nan nan nan nan nan nan nan nan nan nan nan nan nan nan nan nan nan nan nan nan nan nan nan nan nan nan nan nan 0 0 0 0 0 0 0 1 2 4 4 6 9 12 13 13 16 17 19 19 21 26 30 30 37 43 43 49 50 52 52 56
nan nan nan nan nan nan nan nan nan nan nan nan nan nan nan nan nan nan nan nan nan nan nan nan nan nan nan nan nan nan nan nan nan nan nan nan nan nan nan nan nan nan nan nan nan nan nan nan nan nan nan nan nan nan nan nan nan nan 0 0 0 1 4 7 7 10 12 16 17 17 20 21 23 23 25 27 28 28 33 40 40 48 50 52 52 54
nan nan nan nan nan nan nan nan nan nan nan nan nan nan nan nan nan nan nan nan nan nan nan nan nan nan nan nan nan nan nan nan nan nan nan nan nan nan nan nan nan nan nan nan nan nan nan nan nan nan nan nan nan nan nan nan nan nan 0 1 1 3 7 10 10 12 16 18 19 19 20 23 25 25 27 28 29 29 31 34 34 39 46 50 50 53
nan nan nan nan nan nan nan nan nan nan nan nan nan nan nan nan nan nan nan nan nan nan nan nan nan nan nan nan nan nan nan nan nan nan nan nan nan nan nan nan nan nan nan nan nan nan nan nan nan nan nan nan nan nan nan nan nan nan 1 3 3 6 9 10 10 14 16 18 20 20 21 25 27 27 28 29 30 30 31 31 31 34 39 45 45 49
nan nan nan nan nan nan nan nan nan nan nan nan nan nan nan nan nan nan nan nan nan nan nan nan nan nan nan nan nan nan nan nan nan nan nan nan nan nan nan nan nan nan nan nan nan nan nan nan nan nan nan nan nan nan nan nan nan 0 2 5 5 8 10 12 12 14 16 18 19 19 23 26 27 27 30 28 30 30 32 31 31 31 34 36 36 42
nan nan nan nan nan nan nan nan nan nan nan nan nan nan nan nan nan nan nan nan nan nan nan nan nan nan nan nan nan nan nan nan nan nan nan nan nan nan nan nan nan nan nan nan nan nan nan nan nan nan nan nan nan nan nan nan nan 1 3 6 6 9 11 12 12 14 16 19 21 21 24 26 28 28 29 30 30 30 30 29 29 29 33 34 34 39
nan nan nan nan nan nan nan nan nan nan nan nan nan nan nan nan nan nan nan nan nan nan nan nan nan nan nan nan nan nan nan nan nan nan nan nan nan nan nan nan nan nan nan nan nan nan nan nan nan nan nan nan nan nan nan nan nan 2 4 7 7 8 10 11 11 12 15 16 20 20 22 24 26 26 26 28 30 30 28 29 29 33 31 33 33 36
nan nan nan nan nan nan nan nan nan nan nan nan nan nan nan nan nan nan nan nan nan nan nan nan nan nan nan nan nan nan nan nan nan nan nan nan nan nan nan nan nan nan nan nan nan nan nan nan nan nan nan nan nan nan nan nan nan 3 5 7 7 9 10 11 11 12 14 16 19 19 21 24 25 25 26 27 28 28 28 28 28 30 31 32 32 36
nan nan nan nan nan nan nan nan nan nan nan nan nan nan nan nan nan nan nan nan nan nan nan nan nan nan nan nan nan nan nan nan nan nan nan nan nan nan nan nan nan nan nan nan nan nan nan nan nan nan nan nan nan nan nan nan nan 2 4 7 7 9 9 9 9 12 14 16 18 18 20 23 23 23 26 25 27 27 27 26 26 29 30 31 31 33
nan nan nan nan nan nan nan nan nan nan nan nan nan nan nan nan nan nan nan nan nan nan nan nan nan nan nan nan nan nan nan nan nan nan nan nan nan nan nan nan nan nan nan nan nan nan nan nan nan nan nan nan nan nan nan nan nan 1 4 6 6 7 9 10 10 11 13 16 18 18 21 23 24 24 25 25 24 24 25 27 27 27 28 29 29 28
nan nan nan nan nan nan nan nan nan nan nan nan nan nan nan nan nan nan nan nan nan nan nan nan nan nan nan nan nan nan nan nan nan nan nan nan nan nan nan nan nan nan nan nan nan nan nan nan nan nan nan nan nan nan nan nan nan 1 3 5 5 7 9 10 10 11 13 16 18 18 19 21 22 22 22 23 24 24 26 26 26 25 27 28 28 30
nan nan nan nan nan nan nan nan nan nan nan nan nan nan nan nan nan nan nan nan nan nan nan nan nan nan nan nan nan nan nan nan nan nan nan nan nan nan nan nan nan nan nan nan nan nan nan nan nan nan nan nan nan nan nan nan nan 0 2 4 4 6 8 11 11 13 14 16 18 18 19 20 21 21 22 22 22 22 24 25 25 25 27 29 29 31
nan nan nan nan nan nan nan nan nan nan nan nan nan nan nan nan nan nan nan nan nan nan nan nan nan nan nan nan nan nan nan nan nan nan nan nan nan nan nan nan nan nan nan nan nan nan nan nan nan nan nan nan nan nan nan nan nan 0 1 3 3 5 8 10 10 12 14 16 16 16 19 19 18 18 19 20 21 21 23 26 26 26 28 29 29 32
nan nan nan nan nan nan nan nan nan nan nan nan nan nan nan nan nan nan nan nan nan nan nan nan nan nan nan nan nan nan nan nan nan nan nan nan nan nan nan nan nan nan nan nan nan nan nan nan nan nan nan nan nan nan nan nan nan nan 1 3 3 5 7 10 10 13 14 16 15 15 17 17 17 17 17 19 19 19 22 24 24 27 29 30 30 33
nan nan nan nan nan nan nan nan nan nan nan nan nan nan nan nan nan nan nan nan nan nan nan nan nan nan nan nan nan nan nan nan nan nan nan nan nan nan nan nan nan nan nan nan nan nan nan nan nan nan nan nan nan nan nan nan nan nan 0 2 2 4 6 9 9 12 14 14 14 14 15 16 16 16 16 17 19 19 22 25 25 27 29 30 30 31
nan nan nan nan nan nan nan nan nan nan nan nan nan nan nan nan nan nan nan nan nan nan nan nan nan nan nan nan nan nan nan nan nan nan nan nan nan nan nan nan nan nan nan nan nan nan nan nan nan nan nan nan nan nan nan nan nan nan 0 1 1 3 5 8 8 11 14 14 14 14 14 14 15 15 15 17 18 18 20 25 25 26 27 27 27 28
nan nan nan nan nan nan nan nan nan nan nan nan nan nan 0 nan nan nan nan nan nan nan nan nan nan nan nan nan nan nan nan nan nan nan nan nan nan nan nan nan nan nan nan nan nan nan nan nan nan nan nan nan nan nan nan nan nan nan nan 0 0 2 5 7 7 9 10 12 12 12 14 14 14 14 14 16 17 17 19 22 22 23 25 24 24 24
nan nan nan nan nan nan nan nan nan nan nan nan 0 0 0 nan nan nan nan nan nan nan nan nan nan nan nan nan nan nan nan nan nan nan nan nan nan nan nan nan nan nan nan nan nan nan nan nan nan nan nan nan nan nan nan nan nan nan nan 1 1 2 4 5 5 6 7 8 10 10 13 13 14 14 14 16 17 17 18 18 18 20 19 20 20 19
nan nan nan nan nan 0 nan nan nan nan 1 nan nan nan nan nan nan nan nan nan nan nan nan nan nan nan nan nan nan nan nan nan nan nan nan nan nan nan nan nan nan nan nan nan nan nan nan nan nan nan nan nan nan nan nan nan nan nan 0 1 1 2 3 3 3 4 5 7 8 8 10 12 13 13 14 15 15 15 15 16 16 16 16 16 16 15
1 1 1 2 2 1 2 2 3 3 4 0 nan nan nan nan nan nan nan nan nan nan nan nan nan nan nan nan nan nan nan nan nan nan nan nan nan nan nan nan nan nan nan nan nan nan nan nan nan nan nan nan nan nan nan nan nan nan 0 1 1 2 2 2 2 3 4 5 6 6 7 9 10 10 12 13 13 13 14 14 14 14 14 13 13 11
7 7 5 4 4 3 2 2 3 3 5 4 0 0 nan nan nan nan nan nan nan nan nan nan nan nan nan nan nan nan nan nan nan nan nan nan nan nan nan nan nan nan nan nan nan nan nan nan nan nan nan nan nan nan nan nan nan nan 0 1 1 1 1 1 1 2 3 3 4 4 5 5 7 7 8 10 11 11 13 14 14 14 13 8 8 4
4 3 2 0 0 nan nan 0 2 2 5 5 1 1 nan nan nan nan nan nan nan nan nan nan nan nan nan nan nan nan nan nan nan nan nan nan nan nan nan nan nan nan nan nan nan nan nan nan nan nan nan nan nan nan nan nan nan nan 0 1 1 0 0 0 0 1 1 2 2 2 3 4 5 5 6 6 8 8 10 13 13 12 8 5 5 3
nan nan nan nan nan nan nan nan nan nan 1 2 nan nan nan nan nan nan nan nan nan nan nan nan nan nan nan nan nan nan nan nan nan nan nan nan nan nan nan nan nan nan nan nan nan nan nan nan nan nan nan nan nan nan nan nan nan nan nan 0 0 nan nan 0 0 0 1 1 2 2 2 3 4 4 5 5 6 6 9 10 10 9 5 4 4 3
nan nan nan nan nan nan nan nan nan nan nan nan nan nan nan nan nan nan nan nan nan nan nan nan nan nan nan nan nan nan nan nan nan nan nan nan nan nan nan nan nan nan 0 nan nan nan nan nan nan nan nan nan nan nan nan nan nan nan nan nan nan nan nan nan nan 0 0 1 1 1 1 2 2 2 3 4 5 5 7 11 11 9 5 3 3 3
nan nan nan nan nan nan nan nan nan nan nan nan nan nan nan nan nan nan nan nan nan nan nan nan nan nan nan nan nan nan nan nan nan nan nan 0 1 1 0 1 1 1 1 3 3 0 nan nan nan nan nan nan nan nan nan nan nan nan nan nan nan nan nan nan nan nan nan nan 0 0 0 0 1 1 2 3 5 5 7 9 9 12 7 4 4 4
nan nan nan nan nan nan nan nan nan nan nan nan nan nan nan nan nan nan nan nan nan nan nan nan nan nan nan nan nan nan nan nan nan nan 0 1 2 2 1 1 1 2 1 2 2 2 0 0 0 0 nan nan nan nan nan nan nan nan nan nan nan nan nan nan nan nan nan nan nan nan 0 0 1 1 2 3 5 5 7 10 10 13 13 5 5 5
nan nan nan nan nan nan nan nan nan nan nan nan nan nan nan nan nan nan nan nan nan nan nan nan nan nan nan nan nan nan nan nan nan nan 1 2 2 2 2 2 2 1 2 1 1 1 1 1 1 0 nan nan nan nan nan nan nan nan nan nan nan nan nan nan nan nan nan nan nan nan nan nan 2 2 1 3 4 4 7 9 9 11 12 9 9 6
nan nan nan nan nan nan nan nan nan nan nan nan nan nan nan nan nan nan nan nan nan nan nan nan nan nan nan nan nan nan nan nan nan nan 1 2 3 3 3 1 1 1 2 2 2 2 1 1 1 1 0 0 nan nan nan nan nan nan nan nan nan nan nan nan nan nan nan nan nan nan nan nan nan nan 0 1 4 4 7 8 8 9 9 11 11 9
nan nan nan nan nan nan nan nan nan nan nan nan nan nan nan nan nan nan nan nan nan nan nan nan nan nan nan nan nan nan nan nan nan nan 1 3 3 3 3 2 2 2 2 2 2 2 1 1 1 1 1 0 nan nan nan nan nan nan nan nan nan nan nan nan nan nan nan nan nan nan nan nan nan nan 0 2 5 5 5 6 6 6 6 8 8 9
nan nan nan nan nan nan nan nan nan nan nan nan nan nan nan nan nan nan nan nan nan nan nan nan nan nan 0 0 0 0 nan nan 0 0 1 5 4 4 3 2 2 4 3 4 4 2 2 1 1 1 0 nan nan nan nan nan nan nan nan nan nan nan nan nan nan 0 nan nan nan nan nan 0 nan nan 0 2 2 2 3 3 3 4 4 6 6 7
nan nan nan nan nan nan nan nan nan nan nan nan nan nan nan nan nan nan nan nan nan nan nan nan nan nan 0 1 1 1 1 0 2 2 2 6 6 6 3 3 3 2 3 5 5 5 3 2 2 1 0 nan 0 0 0 0 0 nan nan nan nan nan nan nan nan 0 0 nan 0 0 0 0 nan nan nan 0 nan nan nan nan nan 1 3 4 4 5
nan nan nan nan nan nan nan nan nan nan nan nan nan nan nan nan nan nan nan nan nan nan nan nan nan nan nan 0 0 0 1 1 2 2 2 3 6 6 3 3 3 2 3 6 6 6 4 2 2 2 1 0 0 0 0 0 0 0 nan nan nan nan nan nan nan 0 0 0 0 0 0 nan nan nan nan nan nan nan nan nan nan 0 1 1 1 2
nan nan nan nan nan nan nan nan nan nan nan nan nan nan nan nan nan nan nan nan nan nan nan nan nan nan nan nan nan nan 0 2 2 2 2 0 3 3 3 2 2 3 3 5 5 5 5 4 4 5 3 1 1 1 1 1 1 1 2 0 0 nan nan nan nan nan 0 0 0 0 nan nan nan nan nan nan nan nan 0 0 0 0 2 1 1 0
nan nan nan nan nan nan nan nan nan nan nan nan nan nan nan nan nan nan nan nan nan nan nan nan nan nan nan nan nan nan nan nan nan nan 1 nan nan nan 0 1 1 2 3 3 3 4 5 4 4 5 3 2 2 2 2 1 1 4 4 2 2 0 nan nan nan nan 0 0 0 0 0 nan nan nan nan 0 0 0 1 0 0 1 2 1 1 1
nan nan nan nan nan nan nan nan nan nan nan nan nan nan nan nan nan nan nan nan nan nan nan nan nan nan nan nan 0 0 1 nan nan nan nan nan nan nan nan 0 0 2 3 4 4 4 5 5 5 5 3 4 4 4 2 1 1 3 3 2 2 0 0 nan nan nan 0 0 0 0 1 0 nan nan 0 0 0 0 2 2 2 5 4 1 1 1
nan nan nan nan nan nan nan nan nan nan nan nan nan nan nan nan nan nan nan nan nan nan nan nan nan nan nan nan nan nan 1 1 nan nan nan nan nan nan nan 2 2 4 5 5 5 4 4 5 5 5 4 4 5 5 3 3 3 2 1 2 2 1 0 nan nan nan nan nan 0 0 1 0 0 0 0 1 1 1 2 4 4 6 4 1 1 1
nan nan nan nan nan nan nan nan nan nan nan nan nan nan nan nan nan nan nan nan nan nan nan nan nan nan nan nan nan nan 0 1 1 1 1 1 nan nan 1 3 3 4 5 5 5 4 3 4 4 3 3 4 5 5 3 3 3 2 0 1 1 1 nan nan nan nan nan nan 0 0 1 1 2 2 2 1 1 1 1 2 2 2 2 1 1 1
nan nan nan nan nan nan nan nan nan nan nan nan nan nan nan nan nan nan nan nan nan nan nan nan nan nan nan nan nan nan 0 0 2 2 4 3 2 2 3 3 3 4 5 4 4 4 3 3 3 2 3 3 4 4 3 2 2 1 0 0 0 0 0 nan nan nan nan nan 0 0 2 3 2 2 2 2 1 1 1 1 1 1 1 1 1 0
nan nan nan nan nan nan nan nan nan nan nan nan nan nan nan nan nan nan nan nan nan nan nan nan nan nan 0 0 0 0 0 0 0 0 1 2 5 5 4 4 4 4 5 4 4 5 4 3 3 4 4 3 3 3 2 1 1 0 0 0 0 nan nan nan nan nan nan 0 1 1 3 4 3 3 2 2 1 1 1 1 1 1 1 0 0 0
nan nan nan nan nan nan nan nan nan nan nan nan nan nan nan nan nan nan 0 nan nan nan nan nan nan 0 0 0 0 0 0 1 1 1 1 1 2 2 2 3 3 5 5 4 4 5 5 6 6 5 3 3 2 2 1 1 1 1 0 nan nan nan nan nan nan nan 0 0 2 2 4 5 3 3 3 2 1 1 1 0 0 1 1 0 0 nan
0 nan nan nan nan nan nan nan nan nan nan nan nan nan nan nan nan nan nan nan nan nan nan nan nan 0 0 0 0 0 1 1 1 1 1 1 2 2 2 2 2 4 4 5 5 6 5 7 7 7 5 2 1 1 0 0 0 1 0 0 0 0 nan nan nan nan 0 2 3 3 6 5 2 2 2 2 1 1 0 0 0 0 1 0 0 0
0 nan nan nan nan nan nan nan nan nan nan nan nan nan nan nan nan nan nan nan nan nan nan 0 0 0 1 0 0 0 1 2 2 2 1 1 2 2 2 3 3 4 4 5 5 4 4 5 5 4 0 0 0 0 0 0 0 0 0 1 1 0 0 nan nan nan 0 1 3 3 5 3 2 2 1 4 1 1 0 0 0 0 0 0 0 0
0 nan nan nan nan nan nan nan nan nan nan nan nan nan nan nan nan nan nan nan nan nan 0 0 0 1 1 0 1 1 1 1 1 1 1 1 2 2 3 4 4 3 4 4 4 2 1 4 4 1 2 0 0 0 0 0 0 1 1 0 0 0 0 0 0 0 1 2 3 3 7 4 5 5 4 4 3 3 1 0 0 0 0 0 0 0
0 0 nan nan nan nan nan nan nan nan nan nan nan nan nan nan 0 0 0 0 0 0 0 0 0 1 0 0 1 1 2 2 1 1 1 1 2 2 4 4 4 5 6 3 3 2 1 0 0 nan nan 1 0 0 0 0 0 0 0 0 0 0 1 1 1 1 2 2 3 3 5 5 5 5 2 3 3 3 1 0 0 0 nan 0 0 1
CIN
-0 -0 -0 nan nan nan nan nan nan nan nan nan nan nan nan nan nan nan nan nan nan nan nan nan nan nan nan nan nan nan nan nan nan nan nan nan nan nan nan nan nan nan nan nan nan nan nan -0 -0 -0 -0 -0 -0 -0 -0 -0 -0 -0 -0 -0 -0 -0 -0 -0 -0 -0 -0 -0 -0 -0 -0 -0 -0 -0 -0 -0 -0 -0 -0 -0 -0 -0 -0 -0 -0 -0
-0 -0 nan nan nan nan nan nan nan nan nan nan nan nan nan nan nan nan nan nan nan nan nan nan nan nan nan nan nan nan nan nan nan nan nan nan nan nan nan nan nan nan nan nan nan nan nan -0 -0 -0 -0 -0 -0 -0 -0 -0 -0 -0 -0 -0 -0 -0 -0 -0 -0 -0 -0 -0 -0 -0 -0 -0 -0 -0 -0 -0 -0 -0 -0 -0 -0 -0 -0 -0 -0 -0
-0 -0 nan nan nan nan nan nan nan nan nan nan nan nan nan nan nan nan nan nan nan nan nan nan nan nan nan nan nan nan nan nan nan nan nan nan nan nan nan nan nan nan nan nan nan nan -0 -0 -0 -0 -0 -0 -0 -0 -0 -0 -0 -0 -0 -0 -0 -0 -0 -0 -0 -0 -0 -0 -0 -0 -0 -0 -0 -0 -0 -0 -0 -0 -0 -0 -0 -0 -0 -0 -0 -0
-0 -0 -0 nan nan nan nan nan nan nan nan nan nan nan nan -0 -0 -0 -0 nan nan nan nan nan nan nan nan nan nan nan nan nan nan nan nan nan nan nan nan nan nan nan nan nan nan nan -0 -0 -0 -0 -0 -0 -0 -0 -0 -0 -0 -0 -0 -0 -0 -0 -0 -0 -0 -0 -0 -0 -0 -0 -0 -0 -0 -0 -0 -0 -0 -0 -0 -0 -0 -0 -0 -0 -0 -0
-0 -0 -0 -0 -0 -0 nan nan nan nan -0 -0 -0 -0 -0 -0 -0 -0 nan nan nan nan nan nan nan nan nan nan nan nan nan nan nan nan nan nan nan nan nan nan nan nan nan nan nan nan -0 -0 -0 -0 -0 -0 -0 -0 -0 -0 -0 -0 -0 -0 -0 -0 -0 -0 -0 -0 -0 -0 -0 -0 -0 -0 -0 -0 -0 -0 -0 -0 -0 -0 -0 -0 -0 -0 -0 -0
-0 -0 -0 -0 -0 -0 -0 -0 -0 -0 -0 -0 -0 -0 -0 -0 nan nan nan nan nan nan nan nan nan nan nan nan nan nan nan nan nan nan nan nan nan nan nan nan nan nan nan nan nan nan -0 -0 -0 -0 -0 -0 -0 -0 -0 -0 -0 -0 -0 -0 -0 -0 -0 -0 -0 -0 -0 -0 -0 -0 -0 -0 -0 -0 -0 -0 -0 -0 -0 -0 -0 -0 -0 -0 -0 -0
-0 -0 -0 -0 -0 -0 -0 -0 -0 -0 -0 -0 nan nan nan nan nan nan nan nan nan nan nan nan nan nan nan nan nan nan nan nan nan nan nan nan nan nan nan nan nan nan nan nan nan nan nan -0 -0 -0 -0 -0 -0 -0 -0 -0 -0 -0 -0 -0 -0 -0 -0 -0 -0 -0 -0 -0 -0 -0 -0 -0 -0 -0 -0 -0 -0 -0 -0 -0 -0 -0 -0 -0 -0 -0
nan nan nan nan nan nan nan nan nan nan nan nan nan nan nan nan nan nan nan nan nan nan nan nan nan nan nan nan nan nan nan nan nan nan nan nan nan nan nan nan nan nan nan nan nan nan nan nan nan nan nan nan nan nan -0 -0 -0 -0 -0 -0 -0 -0 -0 -0 -0 -0 -0 -0 -0 -0 -0 -0 -0 -0 -0 -0 -0 -0 -0 -0 -0 -0 -0 -0 -0 -0
nan nan nan nan nan nan nan nan nan nan nan nan nan nan nan nan nan nan nan nan nan nan nan nan nan nan nan nan nan nan nan nan nan nan nan nan nan nan nan nan nan nan nan nan nan nan nan nan nan nan nan nan nan nan nan nan nan nan -0 -0 -0 -0 -0 -0 -0 -0 -0 -0 -0 -0 -0 -0 -0 -0 -0 -0 -0 -0 -0 -0 -0 -0 -0 -0 -0 -0
nan nan nan nan nan nan nan nan nan nan nan nan nan nan nan nan nan nan nan nan nan nan nan nan nan nan nan nan nan nan nan nan nan nan nan nan nan nan nan nan nan nan nan nan nan nan nan nan nan nan nan nan nan nan nan nan nan nan -0 -0 -0 -0 -0 -0 -0 -0 -0 -0 -0 -0 -0 -0 -0 -0 -0 -0 -0 -0 -0 -0 -0 -0 -0 -0 -0 -0
nan nan nan nan nan nan nan nan nan nan nan nan nan nan nan nan nan nan nan nan nan nan nan nan nan nan nan nan nan nan nan nan nan nan nan nan nan nan nan nan nan nan nan nan nan nan nan nan nan nan nan nan nan nan nan nan nan nan -0 -0 -0 -0 -0 -0 -0 -0 -0 -0 -0 -0 -0 -0 -0 -0 -0 -0 -0 -0 -0 -0 -0 -0 -0 -0 -0 -0
nan nan nan nan nan nan nan nan nan nan nan nan nan nan nan nan nan nan nan nan nan nan nan nan nan nan nan nan nan nan nan nan nan nan nan nan nan nan nan nan nan nan nan nan nan nan nan nan nan nan nan nan nan nan nan nan nan -0 -0 -0 -0 -0 -0 -0 -0 -0 -0 -0 -0 -0 -0 -0 -0 -0 -0 -0 -0 -0 -0 -0 -0 -0 -0 -0 -0 -0
nan nan nan nan nan nan nan nan nan nan nan nan nan nan nan nan nan nan nan nan nan nan nan nan nan nan nan nan nan nan nan nan nan nan nan nan nan nan nan nan nan nan nan nan nan nan nan nan nan nan nan nan nan nan nan nan nan -0 -0 -0 -0 -0 -0 -0 -0 -0 -0 -0 -0 -0 -0 -0 -0 -0 -0 -0 -0 -0 -0 -0 -0 -0 -0 -0 -0 -0
nan nan nan nan nan nan nan nan nan nan nan nan nan nan nan nan nan nan nan nan nan nan nan nan nan nan nan nan nan nan nan nan nan nan nan nan nan nan nan nan nan nan nan nan nan nan nan nan nan nan nan nan nan nan nan nan nan -0 -0 -0 -0 -0 -0 -0 -0 -0 -0 -0 -0 -0 -0 -0 -0 -0 -0 -0 -0 -0 -0 -0 -0 -0 -0 -0 -0 -0
nan nan nan nan nan nan nan nan nan nan nan nan nan nan nan nan nan nan nan nan nan nan nan nan nan nan nan nan nan nan nan nan nan nan nan nan nan nan nan nan nan nan nan nan nan nan nan nan nan nan nan nan nan nan nan nan nan -0 -0 -0 -0 -0 -0 -0 -0 -0 -0 -0 -0 -0 -0 -0 -0 -0 -0 -0 -0 -0 -0 -0 -0 -0 -0 -0 -0 -0
nan nan nan nan nan nan nan nan nan nan nan nan nan nan nan nan nan nan nan nan nan nan nan nan nan nan nan nan nan nan nan nan nan nan nan nan nan nan nan nan nan nan nan nan nan nan nan nan nan nan nan nan nan nan nan nan nan -0 -0 -0 -0 -0 -0 -0 -0 -0 -0 -0 -0 -0 -0 -0 -0 -0 -0 -0 -0 -0 -0 -0 -0 -0 -0 -0 -0 -0
nan nan nan nan nan nan nan nan nan nan nan nan nan nan nan nan nan nan nan nan nan nan nan nan nan nan nan nan nan nan nan nan nan nan nan nan nan nan nan nan nan nan nan nan nan nan nan nan nan nan nan nan nan nan nan nan nan -0 -0 -0 -0 -0 -0 -0 -0 -0 -0 -0 -0 -0 -0 -0 -0 -0 -0 -0 -0 -0 -0 -0 -0 -0 -0 -0 -0 -0
nan nan nan nan nan nan nan nan nan nan nan nan nan nan nan nan nan nan nan nan nan nan nan nan nan nan nan nan nan nan nan nan nan nan nan nan nan nan nan nan nan nan nan nan nan nan nan nan nan nan nan nan nan nan nan nan nan -0 -0 -0 -0 -0 -0 -0 -0 -0 -0 -0 -0 -0 -0 -0 -0 -0 -0 -0 -0 -0 -0 -0 -0 -0 -0 -0 -0 -0
nan nan nan nan nan nan nan nan nan nan nan nan nan nan nan nan nan nan nan nan nan nan nan nan nan nan nan nan nan nan nan nan nan nan nan nan nan nan nan nan nan nan nan nan nan nan nan nan nan nan nan nan nan nan nan nan nan -0 -0 -0 -0 -0 -0 -0 -0 -0 -0 -0 -0 -0 -0 -0 -0 -0 -0 -0 -0 -0 -0 -0 -0 -0 -0 -0 -0 -0
nan nan nan nan nan nan nan nan nan nan nan nan nan nan nan nan nan nan nan nan nan nan nan nan nan nan nan nan nan nan nan nan nan nan nan nan nan nan nan nan nan nan nan nan nan nan nan nan nan nan nan nan nan nan nan nan nan -0 -0 -0 -0 -0 -0 -0 -0 -0 -0 -0 -0 -0 -0 -0 -0 -0 -0 -0 -0 -0 -0 -0 -0 -0 -0 -0 -0 -0
nan nan nan nan nan nan nan nan nan nan nan nan nan nan nan nan nan nan nan nan nan nan nan nan nan nan nan nan nan nan nan nan nan nan nan nan nan nan nan nan nan nan nan nan nan nan nan nan nan nan nan nan nan nan nan nan nan nan -0 -0 -0 -0 -0 -0 -0 -0 -0 -0 -0 -0 -0 -0 -0 -0 -0 -0 -0 -0 -0 -0 -0 -0 -0 -0 -0 -0
nan nan nan nan nan nan nan nan nan nan nan nan nan nan nan nan nan nan nan nan nan nan nan nan nan nan nan nan nan nan nan nan nan nan nan nan nan nan nan nan nan nan nan nan nan nan nan nan nan nan nan nan nan nan nan nan nan nan -0 -0 -0 -0 -0 -0 -0 -0 -0 -0 -0 -0 -0 -0 -0 -0 -0 -0 -0 -0 -0 -0 -0 -0 -0 -0 -0 -0
nan nan nan nan nan nan nan nan nan nan nan nan nan nan nan nan nan nan nan nan nan nan nan nan nan nan nan nan nan nan nan nan nan nan nan nan nan nan nan nan nan nan nan nan nan nan nan nan nan nan nan nan nan nan nan nan nan nan -0 -0 -0 -0 -0 -0 -0 -0 -0 -0 -0 -0 -0 -0 -0 -0 -0 -0 -0 -0 -0 -0 -0 -0 -0 -0 -0 -0
nan nan nan nan nan nan nan nan nan nan nan nan nan nan -0 nan nan nan nan nan nan nan nan nan nan nan nan nan nan nan nan nan nan nan nan nan nan nan nan nan nan nan nan nan nan nan nan nan nan nan nan nan nan nan nan nan nan nan nan -0 -0 -0 -0 -0 -0 -0 -0 -0 -0 -0 -0 -0 -0 -0 -0 -0 -0 -0 -0 -0 -0 -0 -0 -0 -0 -0
nan nan nan nan nan nan nan nan nan nan nan nan -0 -0 -0 nan nan nan nan nan nan nan nan nan nan nan nan nan nan nan nan nan nan nan nan nan nan nan nan nan nan nan nan nan nan nan nan nan nan nan nan nan nan nan nan nan nan nan nan -0 -0 -0 -0 -0 -0 -0 -0 -0 -0 -0 -0 -0 -0 -0 -0 -0 -0 -0 -0 -0 -0 -0 -0 -0 -0 -0
nan nan nan nan nan -0 nan nan nan nan -0 nan nan nan nan nan nan nan nan nan nan nan nan nan nan nan nan nan nan nan nan nan nan nan nan nan nan nan nan nan nan nan nan nan nan nan nan nan nan nan nan nan nan nan nan nan nan nan -0 -0 -0 -0 -0 -0 -0 -0 -0 -0 -0 -0 -0 -0 -0 -0 -0 -0 -0 -0 -0 -0 -0 -0 -0 -0 -0 -0
-0 -0 -0 -0 -0 -0 -0 -0 -0 -0 -0 -0 nan nan nan nan nan nan nan nan nan nan nan nan nan nan nan nan nan nan nan nan nan nan nan nan nan nan nan nan nan nan nan nan nan nan nan nan nan nan nan nan nan nan nan nan nan nan -0 -0 -0 -0 -0 -0 -0 -0 -0 -0 -0 -0 -0 -0 -0 -0 -0 -0 -0 -0 -0 -0 -0 -0 -0 -0 -0 -0
-0 -0 -0 -0 -0 -0 -0 -0 -0 -0 -0 -0 -0 -0 nan nan nan nan nan nan nan nan nan nan nan nan nan nan nan nan nan nan nan nan nan nan nan nan nan nan nan nan nan nan nan nan nan nan nan nan nan nan nan nan nan nan nan nan -0 -0 -0 -0 -0 -0 -0 -0 -0 -0 -0 -0 -0 -0 -0 -0 -0 -0 -0 -0 -0 -0 -0 -0 -0 -0 -0 -0
-0 -0 -0 -0 -0 nan nan -0 -0 -0 -0 -0 -0 -0 nan nan nan nan nan nan nan nan nan nan nan nan nan nan nan nan nan nan nan nan nan nan nan nan nan nan nan nan nan nan nan nan nan nan nan nan nan nan nan nan nan nan nan nan -0 -0 -0 -0 -0 -0 -0 -0 -0 -0 -0 -0 -0 -0 -0 -0 -0 -0 -0 -0 -0 -0 -0 -0 -0 -0 -0 -0
nan nan nan nan nan nan nan nan nan nan -0 -0 nan nan nan nan nan nan nan nan nan nan nan nan nan nan nan nan nan nan nan nan nan nan nan nan nan nan nan nan nan nan nan nan nan nan nan nan nan nan nan nan nan nan nan nan nan nan nan -0 -0 nan nan -0 -0 -0 -0 -0 -0 -0 -0 -0 -0 -0 -0 -0 -0 -0 -0 -0 -0 -0 -0 -0 -0 -0
nan nan nan nan nan nan nan nan nan nan nan nan nan nan nan nan nan nan nan nan nan nan nan nan nan nan nan nan nan nan nan nan nan nan nan nan nan nan nan nan nan nan -0 nan nan nan nan nan nan nan nan nan nan nan nan nan nan nan nan nan nan nan nan nan nan -0 -0 -0 -0 -0 -0 -0 -0 -0 -0 -0 -0 -0 -0 -0 -0 -0 -0 -0 -0 -0
nan nan nan nan nan nan nan nan nan nan nan nan nan nan nan nan nan nan nan nan nan nan nan nan nan nan nan nan nan nan nan nan nan nan nan -0 -0 -0 -0 -0 -0 -0 -0 -0 -0 -0 nan nan nan nan nan nan nan nan nan nan nan nan nan nan nan nan nan nan nan nan nan nan -0 -0 -0 -0 -0 -0 -0 -0 -0 -0 -0 -0 -0 -0 -0 -0 -0 -0
nan nan nan nan nan nan nan nan nan nan nan nan nan nan nan nan nan nan nan nan nan nan nan nan nan nan nan nan nan nan nan nan nan nan -0 -0 -0 -0 -0 -0 -0 -0 -0 -0 -0 -0 -0 -0 -0 -0 nan nan nan nan nan nan nan nan nan nan nan nan nan nan nan nan nan nan nan nan -0 -0 -0 -0 -0 -0 -0 -0 -0 -0 -0 -0 -0 -0 -0 -0
nan nan nan nan nan nan nan nan nan nan nan nan nan nan nan nan nan nan nan nan nan nan nan nan nan nan nan nan nan nan nan nan nan nan -0 -0 -0 -0 -0 -0 -0 -0 -0 -0 -0 -0 -0 -0 -0 -0 nan nan nan nan nan nan nan nan nan nan nan nan nan nan nan nan nan nan nan nan nan nan -0 -0 -0 -0 -0 -0 -0 -0 -0 -0 -0 -0 -0 -0
nan nan nan nan nan nan nan nan nan nan nan nan nan nan nan nan nan nan nan nan nan nan nan nan nan nan nan nan nan nan nan nan nan nan -0 -0 -0 -0 -0 -0 -0 -0 -0 -0 -0 -0 -0 -0 -0 -0 -0 -0 nan nan nan nan nan nan nan nan nan nan nan nan nan nan nan nan nan nan nan nan nan nan -0 -0 -0 -0 -0 -0 -0 -0 -0 -0 -0 -0
nan nan nan nan nan nan nan nan nan nan nan nan nan nan nan nan nan nan nan nan nan nan nan nan nan nan nan nan nan nan nan nan nan nan -0 -0 -0 -0 -0 -0 -0 -0 -0 -0 -0 -0 -0 -0 -0 -0 -0 -0 nan nan nan nan nan nan nan nan nan nan nan nan nan nan nan nan nan nan nan nan nan nan -0 -0 -0 -0 -0 -0 -0 -0 -0 -0 -0 -0
nan nan nan nan nan nan nan nan nan nan nan nan nan nan nan nan nan nan nan nan nan nan nan nan nan nan -0 -0 -0 -0 nan nan -0 -0 -0 -0 -0 -0 -0 -0 -0 -0 -0 -0 -0 -0 -0 -0 -0 -0 -0 nan nan nan nan nan nan nan nan nan nan nan nan nan nan -0 nan nan nan nan nan -0 nan nan -0 -0 -0 -0 -0 -0 -0 -0 -0 -0 -0 -0
nan nan nan nan nan nan nan nan nan nan nan nan nan nan nan nan nan nan nan nan nan nan nan nan nan nan -0 -0 -0 -0 -0 -0 -0 -0 -0 -0 -0 -0 -0 -0 -0 -0 -0 -0 -0 -0 -0 -0 -0 -0 -0 nan -0 -0 -0 -0 -0 nan nan nan nan nan nan nan nan -0 -0 nan -0 -0 -0 -0 nan nan nan -0 nan nan nan nan nan -0 -0 -0 -0 -0
nan nan nan nan nan nan nan nan nan nan nan nan nan nan nan nan nan nan nan nan nan nan nan nan nan nan nan -0 -0 -0 -0 -0 -0 -0 -0 -0 -0 -0 -0 -0 -0 -0 -0 -0 -0 -0 -0 -0 -0 -0 -0 -0 -0 -0 -0 -0 -0 -0 nan nan nan nan nan nan nan -0 -0 -0 -0 -0 -0 nan nan nan nan nan nan nan nan nan nan -0 -0 -0 -0 -0
nan nan nan nan nan nan nan nan nan nan nan nan nan nan nan nan nan nan nan nan nan nan nan nan nan nan nan nan nan nan -0 -0 -0 -0 -0 -2 -0 -0 -0 -0 -0 -0 -0 -0 -0 -0 -0 -0 -0 -0 -0 -0 -0 -0 -0 -0 -0 -0 -0 -0 -0 nan nan nan nan nan -0 -0 -0 -0 nan nan nan nan nan nan nan nan -0 -0 -0 -0 -0 -0 -0 -0
nan nan nan nan nan nan nan nan nan nan nan nan nan nan nan nan nan nan nan nan nan nan nan nan nan nan nan nan nan nan nan nan nan nan -1 nan nan nan -0 -0 -0 -0 -0 -0 -0 -0 -0 -0 -0 -0 -0 -0 -0 -0 -0 -0 -0 -0 -0 -0 -0 -0 nan nan nan nan -0 -0 -0 -0 -0 nan nan nan nan -0 -0 -0 -0 -0 -0 -0 -0 -0 -0 -0
nan nan nan nan nan nan nan nan nan nan nan nan nan nan nan nan nan nan nan nan nan nan nan nan nan nan nan nan -0 -0 -0 nan nan nan nan nan nan nan nan -0 -0 -0 -0 -0 -0 -0 -0 -0 -0 -0 -0 -0 -0 -0 -0 -0 -0 -0 -0 -0 -0 -0 -0 nan nan nan -0 -0 -0 -0 -0 -0 nan nan -0 -0 -0 -0 -0 -0 -0 -0 -0 -0 -0 -0
nan nan nan nan nan nan nan nan nan nan nan nan nan nan nan nan nan nan nan nan nan nan nan nan nan nan nan nan nan nan -0 -0 nan nan nan nan nan nan nan -0 -0 -0 -0 -0 -0 -0 -0 -0 -0 -0 -0 -0 -0 -0 -0 -0 -0 -0 -0 -0 -0 -0 -0 nan nan nan nan nan -0 -0 -0 -0 -0 -0 -0 -0 -0 -0 -0 -0 -0 -0 -0 -0 -0 -0
nan nan nan nan nan nan nan nan nan nan nan nan nan nan nan nan nan nan nan nan nan nan nan nan nan nan nan nan nan nan -0 -0 -0 -0 -0 -0 nan nan -0 -0 -0 -0 -0 -0 -0 -0 -0 -0 -0 -0 -0 -0 -0 -0 -0 -0 -0 -0 -0 -0 -0 -0 nan nan nan nan nan nan -0 -0 -0 -0 -0 -0 -0 -0 -0 -0 -0 -0 -0 -0 -0 -0 -0 -0
nan nan nan nan nan nan nan nan nan nan nan nan nan nan nan nan nan nan nan nan nan nan nan nan nan nan nan nan nan nan -0 -0 -0 -0 -0 -0 -4 -4 -0 -0 -0 -0 -0 -0 -0 -0 -0 -0 -0 -0 -0 -0 -0 -0 -0 -0 -0 -0 -0 -0 -0 -0 -0 nan nan nan nan nan -0 -0 -0 -0 -0 -0 -0 -0 -0 -0 -0 -0 -0 -0 -0 -0 -0 -0
nan nan nan nan nan nan nan nan nan nan nan nan nan nan nan nan nan nan nan nan nan nan nan nan nan nan -0 -0 -0 -0 -0 -0 -0 -0 -0 -0 -0 -0 -0 -0 -0 -0 -0 -0 -0 -0 -0 -0 -0 -0 -0 -0 -0 -0 -0 -0 -0 -0 -0 -0 -0 nan nan nan nan nan nan -0 -0 -0 -0 -0 -0 -0 -0 -0 -0 -0 -0 -0 -0 -0 -0 -0 -0 -0
nan nan nan nan nan nan nan nan nan nan nan nan nan nan nan nan nan nan -0 nan nan nan nan nan nan -0 -0 -0 -0 -0 -0 -0 -0 -0 -0 -0 -0 -0 -0 -0 -0 -0 -0 -0 -0 -0 -0 -0 -0 -0 -0 -0 -0 -0 -0 -0 -0 -0 -0 nan nan nan nan nan nan nan -0 -0 -0 -0 -0 -1 -0 -0 -0 -0 -0 -0 -0 -0 -0 -0 -0 -0 -0 nan
-0 nan nan nan nan nan nan nan nan nan nan nan nan nan nan nan nan nan nan nan nan nan nan nan nan -0 -0 -0 -0 -0 -0 -0 -0 -0 -0 -0 -0 -0 -0 -0 -0 -0 -0 -0 -0 -0 -0 -2 -2 -2 -0 -0 -0 -0 -0 -0 -0 -0 -0 -0 -0 -0 nan nan nan nan -0 -0 -7 -7 -4 -0 -0 -0 -0 -0 -0 -0 -0 -0 -0 -0 -0 -0 -0 -0
-0 nan nan nan nan nan nan nan nan nan nan nan nan nan nan nan nan nan nan nan nan nan nan -0 -0 -0 -0 -0 -0 -0 -0 -0 -0 -0 -0 -0 -0 -0 -0 -0 -0 -0 -0 -0 -0 -0 -0 -3 -3 -0 -0 -0 -0 -0 -0 -0 -0 -0 -0 -0 -0 -0 -0 nan nan nan -0 -2 -14 -14 -7 -0 -0 -0 -1 -0 -0 -0 -0 -0 -0 -0 -0 -0 -0 -0
-0 nan nan nan nan nan nan nan nan nan nan nan nan nan nan nan nan nan nan nan nan nan -0 -0 -0 -0 -0 -0 -0 -0 -0 -0 -0 -0 -0 -0 -0 -0 -0 -0 -0 -0 -0 -0 -0 -0 -0 -0 -0 -0 -0 -0 -0 -0 -0 -0 -0 -0 -0 -0 -0 -0 -0 -0 -0 -0 -0 -0 -10 -10 -5 -0 -0 -0 -0 -0 -0 -0 -0 -0 -0 -0 -0 -0 -0 -0
-0 -0 nan nan nan nan nan nan nan nan nan nan nan nan nan nan -0 -0 -0 -0 -0 -0 -0 -0 -0 -0 -0 -0 -0 -0 -0 -0 -0 -0 -0 -0 -0 -0 -0 -0 -0 -0 -0 -0 -0 -0 -0 -0 -0 nan nan -0 -0 -0 -0 -0 -0 -0 -0 -0 -0 -0 -0 -0 -0 -0 -0 -0 -1 -1 -5 -2 -0 -0 -0 -0 -0 -0 -0 -0 -0 -0 nan -0 -0 -0
Wind_Speed
3 3 4 5 5 5 4 6 6 5 5 4 4 4 4 4 4 4 4 4 3 2 2 1 0 1 2 3 4 4 5 6 6 7 7 8 8 8 9 9 9 9 9 9 10 10 11 11 12 13 13 13 14 14 14 15 15 15 15 15 15 16 16 16 16 16 16 17 17 17 17 17 17 17 17 17 18 18 18 19 19 19 19 20 20 20
3 3 3 5 5 5 4 6 6 5 5 5 4 4 4 4 3 3 3 3 2 2 1 1 2 2 3 3 4 4 4 5 6 7 7 8 8 8 8 8 8 9 9 9 10 11 11 12 12 12 13 13 13 13 14 14 14 14 15 15 15 15 15 16 16 16 16 16 16 16 17 17 17 17 17 18 18 18 19 19 19 19 20 20 20 20
3 3 3 4 4 4 4 5 4 4 4 5 4 4 4 4 3 2 2 2 1 1 1 1 2 3 4 4 3 4 4 5 6 7 7 7 8 8 8 8 8 9 9 10 11 11 12 12 12 12 12 13 13 13 13 13 14 14 14 14 14 15 15 15 15 16 16 16 16 16 16 16 17 17 17 18 18 19 19 19 19 19 20 20 20 20
4 3 3 3 3 3 3 3 4 4 4 4 4 4 4 3 2 2 1 1 0 1 2 2 3 3 3 3 3 3 4 5 6 7 7 7 8 8 8 8 8 9 10 10 11 11 12 12 12 12 12 12 12 13 13 13 13 13 14 14 14 14 14 15 15 15 15 16 16 16 16 16 17 17 17 18 18 19 19 19 19 19 20 20 20 20
3 3 3 2 2 3 3 4 4 4 4 4 4 3 3 2 2 1 1 1 1 2 2 2 3 3 3 3 3 3 4 5 6 7 7 7 7 7 8 8 9 9 10 11 11 11 11 11 12 12 12 12 12 12 13 13 13 13 13 14 14 14 14 15 15 15 15 15 15 16 16 16 17 17 17 18 18 18 19 19 19 19 20 20 20 20
3 3 3 2 2 2 3 3 3 3 3 3 3 2 2 2 1 1 1 1 1 2 2 2 3 3 3 3 3 3 4 5 6 6 7 7 7 7 8 8 9 10 11 11 11 11 11 11 11 11 11 12 12 12 12 12 13 13 13 13 14 14 14 14 15 15 15 15 15 16 16 16 16 17 17 18 18 18 19 19 19 19 20 20 20 21
3 3 2 2 2 2 2 2 2 2 2 2 2 2 2 1 1 1 1 1 1 2 2 2 3 3 3 3 3 3 4 5 6 6 6 7 7 7 8 8 9 10 11 11 11 11 11 11 11 11 11 11 12 12 12 12 12 13 13 13 14 14 14 14 15 15 15 15 15 16 16 16 16 17 17 17 18 18 18 19 19 19 20 20 20 20
4 3 3 3 3 2 2 2 2 2 2 2 2 2 2 2 2 2 3 3 2 2 2 2 3 3 3 3 3 3 3 4 4 5 5 6 6 7 7 8 9 10 11 11 11 11 11 11 11 11 11 11 11 12 12 12 12 13 13 13 13 14 14 14 14 15 15 15 15 16 16 16 16 17 17 17 17 18 18 19 19 19 19 20 20 20
5 4 3 3 3 3 2 2 2 2 1 1 2 2 2 2 2 2 3 3 3 2 2 2 2 2 2 2 2 2 2 3 3 3 4 4 5 6 7 8 9 10 10 10 10 10 10 10 10 10 11 11 11 11 11 12 12 12 13 13 13 14 14 14 14 14 15 15 15 16 16 16 16 17 17 17 17 17 18 18 18 19 19 19 19 19
5 5 4 3 3 3 3 3 2 2 2 1 1 1 0 0 0 1 2 2 2 2 1 1 2 2 2 1 1 1 2 3 4 5 6 6 7 7 7 8 8 9 10 10 10 10 10 10 10 10 10 11 11 11 11 11 12 12 12 13 13 13 14 14 14 14 15 15 15 15 16 16 16 16 16 17 17 17 17 17 18 18 18 18 19 19
5 4 4 3 2 2 2 3 2 2 2 1 1 1 0 0 1 1 2 1 1 1 1 1 1 2 2 2 1 1 2 3 4 5 6 7 8 8 8 8 8 8 9 9 9 9 9 9 9 9 10 10 10 10 10 11 11 12 12 13 13 13 14 14 14 14 15 15 15 15 15 16 16 16 16 16 16 17 17 17 17 17 18 18 19 19
4 4 3 3 3 2 3 3 2 2 2 2 2 2 2 1 1 1 1 2 2 1 1 1 1 2 2 1 1 2 2 3 4 4 5 5 5 5 5 5 6 7 7 7 7 7 7 8 8 8 9 9 9 9 10 10 11 11 12 12 13 13 14 14 14 14 14 15 15 15 15 15 15 16 16 16 16 16 17 17 17 17 18 18 19 19
3 3 3 3 3 3 3 3 3 2 2 2 2 2 2 2 1 0 1 2 2 2 2 2 2 2 1 0 1 1 2 3 4 4 4 4 3 3 3 3 4 4 5 5 4 4 5 6 7 7 7 8 8 9 9 10 11 11 12 13 13 13 14 14 14 14 14 14 14 15 15 15 15 15 16 16 16 16 17 17 17 17 18 18 19 19
4 3 3 3 3 3 3 3 3 3 3 2 1 1 2 2 1 0 1 1 1 1 2 2 2 2 1 1 1 1 2 3 4 4 4 3 3 2 2 3 3 4 4 4 4 4 4 5 5 5 6 7 7 8 9 10 11 12 12 13 13 13 13 14 14 14 14 14 14 14 15 15 15 15 16 16 16 17 17 17 17 18 18 18 19 19
4 4 4 4 3 3 3 3 3 3 2 2 2 2 2 1 1 0 1 1 1 1 2 3 3 2 2 2 1 0 2 3 3 4 4 4 3 2 2 3 3 4 4 4 4 4 4 4 4 4 5 6 7 8 9 10 12 13 13 13 13 13 13 14 14 14 14 14 14 14 15 15 15 16 16 16 16 17 17 17 18 18 18 18 19 19
4 4 4 4 4 3 3 2 2 2 3 3 2 2 1 1 1 0 1 1 2 2 2 2 2 2 2 3 2 1 2 3 3 4 5 4 3 2 2 3 3 4 4 4 4 4 4 4 4 4 5 6 8 9 11 11 12 13 13 13 13 13 14 14 14 14 14 14 14 15 15 15 16 16 16 16 17 17 17 17 18 18 18 18 19 19
3 3 3 4 4 3 3 2 2 2 3 3 2 2 1 1 1 1 1 1 1 1 2 2 2 2 1 2 2 2 1 2 3 4 5 4 3 2 1 2 3 4 4 4 4 4 4 4 4 4 4 7 9 10 11 12 12 13 13 13 13 14 14 14 14 14 14 15 15 15 15 16 16 16 16 17 17 17 17 17 18 18 18 18 19 19
3 3 3 3 3 3 3 3 2 2 3 3 2 2 1 1 1 0 0 1 1 1 1 2 1 1 2 1 1 2 0 2 3 4 5 5 4 2 1 2 3 4 4 4 4 4 4 4 4 4 5 8 10 11 12 12 13 13 13 13 14 14 14 14 14 14 15 15 15 16 16 16 16 17 17 17 17 17 17 18 18 18 18 19 19 19
3 3 3 3 3 3 3 3 2 2 3 3 2 2 2 2 1 1 1 1 1 1 1 2 1 1 2 2 2 2 2 3 3 4 4 4 4 3 2 2 3 4 4 4 4 4 4 4 5 6 7 9 10 11 12 12 13 13 13 14 14 14 14 14 15 15 15 16 16 16 16 17 17 17 17 17 17 17 18 18 18 18 19 19 19 19
3 3 3 3 3 4 3 3 3 2 3 2 2 2 2 2 2 2 2 1 1 1 1 2 2 2 2 2 2 3 4 3 3 3 4 4 4 3 2 2 3 4 5 4 4 4 4 4 5 6 8 9 10 11 11 12 13 13 13 14 14 14 14 15 15 15 16 16 16 17 17 17 17 17 17 17 17 18 18 18 18 19 19 19 19 19
4 4 3 3 3 3 3 3 3 3 3 3 2 2 2 2 2 1 1 1 1 1 1 2 2 2 2 2 3 3 4 3 3 3 3 3 3 3 2 2 3 4 5 5 4 4 4 5 5 5 6 8 10 11 11 12 12 13 13 14 14 15 15 15 16 16 16 16 17 17 17 17 17 17 17 17 18 18 18 18 18 19 19 19 19 19
4 4 4 3 3 3 3 4 4 4 3 3 2 2 1 1 1 1 0 0 1 1 2 2 2 2 2 3 3 3 3 3 3 3 3 3 3 3 2 2 3 4 5 5 5 5 5 5 5 6 7 9 10 11 11 12 12 13 14 14 15 15 16 16 16 16 16 17 17 17 17 17 17 17 17 18 18 18 18 18 18 19 19 19 19 19
5 5 5 4 4 4 4 4 4 4 3 2 2 1 1 0 0 0 1 1 1 1 2 2 2 2 3 3 2 2 1 2 2 2 2 3 3 3 2 3 3 4 4 5 5 5 5 5 6 6 7 9 10 10 11 12 12 13 14 15 15 16 16 16 16 16 16 17 17 17 17 17 17 17 17 18 18 18 18 18 18 19 19 19 19 19
6 5 5 4 4 4 4 4 3 3 2 2 2 2 1 1 0 1 1 1 1 2 2 2 3 3 3 2 2 1 1 1 1 2 2 3 3 3 3 3 4 5 5 5 5 6 6 6 6 6 6 8 9 10 11 12 13 13 14 15 15 16 16 16 16 16 16 16 16 17 17 17 17 17 17 18 18 18 18 18 18 19 19 19 19 20
5 5 4 4 4 4 4 3 3 3 2 2 2 2 2 1 1 0 0 1 1 2 2 3 3 2 1 1 1 1 1 1 0 2 2 2 3 4 4 4 4 5 5 5 6 6 6 6 6 6 6 7 8 9 10 12 13 14 15 15 15 16 16 16 16 16 16 16 16 16 17 17 17 17 17 18 18 18 18 18 18 19 19 19 20 20
6 6 6 6 6 6 5 4 4 4 3 3 2 2 2 2 1 1 1 1 1 1 2 2 2 1 1 1 1 1 1 1 0 1 2 2 3 4 3 3 4 5 5 5 6 6 7 7 6 6 5 6 7 9 11 12 13 14 15 15 15 15 15 15 15 15 16 16 16 16 17 17 17 17 17 17 17 18 18 18 18 19 19 19 19 19
10 9 9 8 8 7 6 5 5 5 5 4 4 3 1 1 1 1 1 0 0 1 2 2 2 1 1 1 1 1 0 1 0 0 2 3 3 3 3 3 4 5 6 6 6 6 7 7 6 6 5 5 6 7 10 12 13 14 15 15 14 14 14 14 15 15 15 16 16 16 17 17 17 17 17 17 17 17 18 18 18 19 19 18 16 15
11 10 10 9 8 7 6 6 5 5 5 6 5 4 1 1 1 0 1 1 1 1 1 1 2 2 2 2 2 1 1 0 1 1 2 2 3 3 3 3 4 5 6 6 6 7 7 6 6 5 4 5 6 7 10 12 13 13 13 14 14 13 14 14 14 15 15 16 16 16 16 16 16 16 17 17 17 17 17 18 18 18 17 14 11 9
10 10 9 9 8 7 6 5 5 5 5 6 5 3 1 1 1 1 1 1 0 1 1 1 1 2 2 2 2 2 1 1 1 1 2 2 3 3 3 4 4 5 5 5 5 5 5 4 4 4 4 5 6 7 8 10 11 11 11 12 12 13 13 13 14 14 15 16 16 16 16 16 16 16 16 16 16 17 17 17 17 15 13 11 9 8
7 7 7 6 6 5 4 4 4 4 5 5 4 3 2 1 1 1 1 1 0 1 1 1 1 1 2 2 2 2 1 1 2 1 2 2 3 3 3 4 4 4 4 5 5 4 4 3 3 3 4 6 7 7 8 8 8 8 8 9 10 11 12 13 14 14 15 15 15 15 15 15 15 16 16 16 16 16 16 17 15 13 9 8 8 8
4 4 4 4 4 4 3 3 3 3 3 4 3 3 2 1 1 1 1 0 0 1 1 1 1 1 1 2 2 1 1 1 2 1 1 2 2 3 3 3 4 4 4 4 4 4 4 4 3 4 5 7 7 7 8 7 7 7 7 7 7 8 11 12 13 14 14 14 14 14 15 15 15 15 15 15 15 15 16 16 14 12 9 8 8 8
3 3 3 3 3 3 2 2 2 2 2 2 2 2 2 1 1 1 1 0 0 1 1 1 1 1 1 2 2 2 1 1 1 1 1 2 2 2 3 3 3 3 3 3 3 4 4 4 4 5 6 7 7 7 7 7 7 7 7 7 7 8 10 11 12 12 12 12 13 13 14 14 14 15 15 15 15 15 15 15 14 12 9 9 9 9
3 3 3 3 2 2 2 2 2 2 2 1 1 1 1 1 1 1 1 1 1 1 1 1 1 1 2 2 2 2 2 2 2 2 2 2 2 2 2 3 3 3 3 3 3 3 4 4 5 5 6 6 6 7 7 7 7 7 7 7 7 7 9 9 10 10 10 10 11 11 12 13 13 14 14 14 14 15 15 16 15 14 12 9 9 9
3 3 2 2 2 2 2 2 2 2 1 1 1 1 1 1 1 1 1 1 1 2 2 2 2 2 2 2 2 3 3 2 2 2 2 2 2 2 2 3 3 3 3 3 3 4 4 5 5 6 6 6 6 6 7 7 7 7 6 7 7 7 8 8 8 8 9 9 8 9 10 10 11 12 13 13 14 14 15 16 16 16 15 11 10 9
2 2 2 2 2 2 2 2 2 1 1 1 1 1 1 1 1 1 1 2 2 2 2 2 2 2 2 2 3 3 3 3 3 3 3 2 2 2 2 2 3 3 3 4 4 4 4 5 6 7 6 6 6 6 6 6 6 6 6 7 7 7 7 7 8 8 8 8 8 8 8 8 9 9 10 12 13 15 16 17 17 17 16 14 12 11
2 2 2 2 1 1 1 1 1 1 1 1 1 0 0 1 1 1 1 2 2 2 3 3 3 3 3 3 3 4 4 4 4 4 4 3 2 2 2 2 3 3 3 4 4 4 4 5 6 7 7 7 6 5 5 6 6 7 7 7 7 7 7 7 7 8 8 8 8 8 8 8 8 9 9 12 14 16 17 17 17 17 16 16 15 14
2 2 2 2 1 1 1 1 1 1 1 1 0 0 0 1 1 1 1 1 2 2 3 3 3 4 4 4 4 5 5 4 5 5 5 4 3 2 3 3 3 3 4 4 4 5 5 5 6 7 6 6 6 5 6 6 7 7 7 7 7 7 7 7 7 7 8 8 8 8 8 8 9 9 10 13 14 15 15 15 15 15 16 16 16 16
2 2 2 1 1 1 1 1 1 1 1 1 1 1 1 1 1 2 1 2 2 3 3 3 3 4 6 6 6 6 6 6 6 7 7 5 4 3 3 3 4 4 4 4 5 5 5 6 6 6 6 6 6 7 7 7 7 8 8 7 7 7 7 7 7 7 7 8 9 9 9 9 9 9 9 10 10 10 11 11 12 13 14 15 15 16
2 2 2 2 1 1 1 1 1 1 1 1 1 1 2 2 2 2 2 2 2 3 3 3 3 4 5 6 7 7 7 7 7 7 7 6 5 4 4 4 4 5 5 5 5 5 5 5 6 6 6 6 7 7 7 7 7 8 8 8 8 7 7 7 7 7 7 8 8 9 9 8 9 9 9 9 9 9 10 10 10 11 12 11 12 13
2 2 2 2 2 2 2 2 1 1 1 1 1 1 2 2 2 2 2 2 2 3 3 3 3 4 4 5 6 6 7 6 6 6 6 5 5 5 5 5 5 5 5 5 5 5 5 6 6 7 7 7 7 7 7 7 7 8 9 7 6 6 7 7 7 7 7 7 8 8 8 8 9 9 9 9 9 9 10 9 10 10 11 10 10 10
2 2 2 2 2 1 1 1 1 1 1 1 1 1 1 1 1 2 2 2 2 2 2 3 3 4 4 5 5 6 6 6 6 6 5 5 5 6 5 5 5 5 5 5 5 5 6 6 7 7 7 7 8 8 8 8 9 9 9 8 7 8 8 8 8 7 7 7 7 8 8 9 9 10 10 10 10 9 9 10 10 10 10 9 9 9
2 2 2 1 1 1 1 1 1 1 1 1 1 1 1 1 1 2 2 2 2 1 2 2 3 3 4 4 4 4 4 4 5 5 5 5 6 6 6 5 5 5 5 6 6 6 6 6 7 7 7 7 8 8 8 8 8 9 8 8 9 9 9 8 7 6 6 7 7 8 9 9 9 9 10 10 10 10 10 10 11 11 11 9 9 9
1 1 1 1 1 1 2 2 2 2 1 1 1 1 0 1 1 2 2 2 2 2 2 2 3 3 4 4 3 3 2 3 4 5 5 5 6 6 6 6 6 6 5 5 6 6 6 6 7 7 7 7 8 8 9 8 8 8 8 9 9 8 6 5 6 6 7 7 7 7 8 8 8 9 10 10 10 10 10 10 11 12 11 10 9 9
1 1 1 1 1 2 2 2 1 1 1 1 1 1 1 1 1 2 2 2 2 2 2 2 2 3 3 4 3 3 3 3 3 4 4 4 5 5 6 7 7 6 6 6 5 6 6 7 7 7 7 7 7 8 8 8 8 8 8 8 8 8 6 6 7 7 7 7 7 7 7 8 8 9 10 10 10 9 9 9 9 9 10 10 9 9
0 0 1 1 2 2 2 1 1 1 1 1 1 1 1 1 1 2 2 2 2 2 2 2 2 2 3 3 3 3 3 3 3 3 3 4 4 5 5 6 6 6 6 6 6 6 6 6 7 7 7 7 7 8 8 8 8 8 8 8 8 8 8 7 7 8 8 7 7 7 8 8 9 9 10 10 9 9 9 9 9 9 10 9 9 9
1 1 1 1 1 1 1 1 1 1 1 1 1 1 1 1 1 2 2 2 2 2 2 2 2 2 3 3 3 3 3 3 3 3 3 3 4 4 5 5 5 6 6 6 6 7 7 7 7 7 7 7 7 8 8 8 8 8 8 8 8 8 8 7 7 7 7 8 8 8 9 9 9 9 9 10 10 10 9 9 9 10 10 10 10 10
1 1 1 1 1 1 1 1 1 1 1 1 1 1 1 1 1 2 2 2 2 2 2 2 2 3 3 3 3 3 4 4 4 4 4 4 4 5 5 5 5 6 6 6 7 7 7 8 8 8 8 8 8 8 8 7 7 8 8 8 8 7 7 7 7 7 7 7 8 8 9 9 9 9 10 10 10 10 9 9 9 9 10 10 10 10
1 1 1 1 1 1 1 1 1 1 2 1 1 1 1 1 1 2 2 2 2 2 2 2 2 3 3 3 3 4 4 4 4 4 4 4 4 5 5 5 5 6 6 7 7 8 8 8 8 8 8 8 8 8 8 7 7 7 7 7 7 7 8 7 7 7 7 7 8 8 8 8 9 9 10 10 10 10 9 9 9 9 9 9 9 10
1 1 1 1 1 1 1 1 2 2 2 2 1 1 1 1 1 2 2 2 2 2 2 2 2 3 3 3 4 4 4 5 4 4 4 4 4 5 5 5 5 5 6 6 6 7 7 7 8 8 8 8 8 8 8 7 7 7 7 7 7 7 7 7 7 7 7 8 8 8 8 8 8 8 9 10 11 11 11 10 10 9 9 9 9 9
2 2 2 2 2 2 1 2 2 2 2 2 2 2 2 2 2 2 2 2 2 2 2 2 3 3 3 3 4 4 4 4 4 4 4 4 4 5 5 5 6 6 6 5 5 5 5 5 6 7 8 8 7 7 7 7 7 7 7 7 6 7 7 7 7 7 8 8 9 9 9 8 8 8 8 9 10 11 11 10 10 9 9 9 9 10
2 2 2 2 2 2 2 2 2 2 2 2 2 2 2 2 2 2 2 2 2 2 2 3 3 3 3 4 4 4 4 4 5 5 5 4 5 5 5 6 6 6 6 5 5 5 4 4 4 4 4 5 6 6 5 6 7 7 7 6 6 6 6 7 7 8 9 9 9 9 9 9 8 8 7 8 9 10 11 11 10 10 9 9 10 10
Wind_Direction
106 118 127 134 132 128 129 133 134 132 132 130 126 120 113 108 101 94 86 79 77 78 79 76 289 270 270 278 283 288 293 296 298 300 300 300 299 297 296 294 294 296 299 302 304 305 305 304 304 303 302 302 301 301 301 301 302 302 303 304 304 305 305 305 305 305 305 305 305 306 307 308 308 307 307 304 302 300 298 296 294 293 292 292 291 290
114 120 131 139 138 134 136 146 148 147 143 139 134 129 125 119 109 96 83 72 66 56 29 325 293 283 278 278 283 290 296 300 302 302 301 299 296 294 292 291 293 296 299 302 303 304 304 304 303 303 302 302 302 301 302 302 303 303 304 304 305 305 305 305 306 306 306 306 307 307 308 307 306 305 303 300 298 297 295 294 293 292 292 291 290 290
135 135 143 143 139 135 134 145 142 132 124 123 119 116 115 111 104 92 79 68 58 31 297 280 279 278 278 275 280 290 296 300 301 301 299 295 292 289 288 290 293 296 299 301 302 303 303 303 303 302 302 302 302 302 302 302 303 303 304 304 305 305 306 306 306 306 307 307 307 306 306 304 302 301 299 297 296 295 294 294 293 292 291 291 291 291
143 144 147 134 117 108 104 113 106 94 88 94 97 99 102 102 100 97 99 112 224 248 247 251 259 266 272 272 275 285 294 297 298 296 294 290 287 286 286 289 293 296 299 300 301 302 302 302 302 302 302 302 302 302 302 303 303 304 304 305 305 306 306 306 306 306 306 305 304 303 302 300 299 298 297 296 295 294 294 293 293 292 292 292 292 292
143 141 140 126 107 95 89 91 91 92 92 93 95 97 99 101 105 115 151 204 234 246 250 250 255 262 270 273 279 286 292 293 292 290 288 284 282 282 284 288 292 295 297 298 300 300 301 301 302 302 302 303 302 303 303 303 304 304 305 305 306 307 307 307 306 305 304 303 301 300 299 298 297 296 296 295 294 294 293 293 293 293 293 293 293 293
135 130 128 121 115 109 106 103 105 108 108 106 105 104 106 110 120 147 208 236 254 262 268 268 268 268 270 273 280 284 285 284 282 280 278 275 275 277 281 286 290 293 295 297 298 299 300 301 302 303 303 304 304 304 304 304 305 305 306 307 307 308 307 306 305 303 302 300 298 297 296 296 296 295 295 294 294 294 294 294 294 294 294 294 294 294
120 114 112 106 103 104 109 112 118 123 126 122 122 123 130 141 164 195 220 232 244 257 266 265 263 261 258 257 262 268 272 270 267 264 262 262 264 269 276 282 288 291 293 295 296 297 299 300 302 303 304 305 305 305 305 306 307 308 309 309 309 308 306 304 303 301 299 298 297 296 296 296 295 295 294 294 294 294 294 294 294 294 294 293 293 293
121 118 118 113 109 107 108 110 117 126 136 140 144 150 161 169 182 195 207 210 213 222 240 250 250 247 243 243 249 258 268 267 261 256 254 254 259 267 276 283 287 290 292 294 295 296 298 300 302 303 305 305 306 306 307 308 309 310 310 309 308 307 305 303 301 299 298 297 297 297 296 296 295 295 294 295 294 294 294 294 293 293 293 293 294 294
127 132 135 135 132 131 128 126 128 136 154 158 160 163 170 177 184 192 200 199 199 206 228 252 260 259 254 256 265 274 282 285 283 281 278 275 277 280 283 287 289 290 291 292 294 295 297 299 301 303 304 305 306 307 308 309 310 311 310 309 307 305 303 301 300 299 298 298 297 297 296 296 296 295 295 295 294 294 294 293 294 294 294 295 296 296
127 132 135 137 140 141 136 131 133 142 160 160 156 151 164 204 231 233 230 206 192 189 212 259 282 291 293 288 286 286 288 284 282 282 281 277 279 281 283 284 285 287 289 290 291 292 293 296 299 301 303 304 305 307 308 310 310 310 308 306 305 303 301 300 300 299 299 298 298 297 297 297 297 296 296 295 295 295 295 295 296 296 297 297 297 297
126 127 126 127 128 126 115 113 120 133 153 158 159 158 146 33 342 311 288 274 241 204 223 272 293 300 301 301 301 305 301 288 281 276 272 268 268 268 269 272 277 282 285 286 287 288 289 292 295 298 300 302 304 306 308 309 309 308 306 304 303 302 301 301 301 300 300 300 299 299 298 298 298 297 297 297 297 297 297 297 298 298 298 298 298 297
125 125 125 128 129 123 111 112 120 138 168 179 182 175 156 123 83 336 302 303 307 315 317 309 297 288 288 304 321 324 311 298 291 286 280 271 264 259 261 268 275 280 285 284 284 284 285 289 292 295 298 300 303 305 307 308 307 306 305 304 304 303 303 303 302 302 301 301 301 300 300 300 299 299 299 299 299 299 299 299 299 298 298 297 297 296
122 125 130 137 140 140 135 137 145 161 183 192 193 177 138 113 96 51 299 296 303 313 319 307 288 268 242 271 329 319 309 301 296 292 288 282 276 274 278 285 290 294 295 292 288 287 288 291 293 295 296 300 303 305 307 308 308 307 306 306 306 306 305 305 304 304 303 303 303 302 302 302 301 301 300 300 300 299 299 299 298 298 297 297 296 296
130 136 141 146 150 152 154 157 163 169 176 177 154 101 81 87 89 89 276 277 289 299 301 287 273 253 183 148 149 292 306 302 299 294 290 288 289 293 297 299 300 300 301 299 297 297 300 299 297 297 297 300 304 307 310 310 310 309 310 309 309 309 308 307 306 306 305 305 304 304 303 303 302 302 301 301 300 300 299 299 298 298 297 297 297 296
143 148 151 153 153 155 159 165 167 161 144 119 95 82 86 103 120 182 275 288 298 299 288 275 261 239 167 143 144 229 302 305 303 301 298 294 294 295 299 299 298 299 299 298 299 301 302 300 299 301 302 307 312 316 316 313 313 313 312 312 311 311 310 309 308 308 307 306 305 304 304 303 302 302 302 301 301 300 300 300 299 299 298 298 297 297
148 151 152 151 150 149 152 157 150 133 112 102 98 101 122 130 128 81 318 316 312 303 291 288 276 245 165 140 140 181 294 308 308 306 303 299 296 296 301 300 300 300 300 300 301 302 303 300 301 304 308 314 316 316 315 313 313 313 313 313 313 312 312 311 310 309 307 306 306 305 304 304 303 303 302 302 302 302 301 301 300 300 299 299 298 298
144 148 147 144 140 137 134 131 120 111 107 108 112 116 121 102 79 42 340 319 306 297 295 303 301 294 231 147 147 163 256 308 311 307 302 299 298 300 308 302 302 303 304 302 303 305 306 305 306 308 311 315 315 314 313 313 313 314 315 315 314 314 313 312 310 309 308 307 306 305 305 305 304 304 304 304 303 303 303 302 301 301 300 300 299 299
138 140 139 135 131 128 128 126 121 117 119 125 129 130 123 101 81 44 315 294 288 290 294 295 298 301 303 330 113 121 113 323 315 306 299 296 297 301 310 303 303 303 304 303 305 306 308 307 307 308 308 310 311 311 311 312 314 315 315 315 315 314 313 312 311 310 308 307 307 306 306 306 306 306 305 305 305 304 304 303 303 302 301 301 300 300
132 130 129 125 124 125 129 132 134 134 136 135 135 136 135 130 142 185 225 242 256 271 287 288 288 289 294 317 2 24 13 341 321 307 298 297 297 301 312 311 307 304 303 304 306 308 309 306 303 303 303 305 306 308 310 312 314 315 316 315 315 314 314 313 311 310 309 308 308 307 307 307 307 307 307 306 306 305 305 304 303 303 302 301 301 300
126 121 116 117 121 125 128 129 130 130 127 126 128 135 142 154 173 194 209 224 239 259 276 278 282 289 301 316 338 353 357 340 322 306 297 296 296 299 317 321 314 308 305 306 308 311 311 308 305 303 303 304 305 307 309 311 313 314 315 315 315 314 314 313 312 311 310 309 309 309 308 308 308 308 307 307 306 306 305 304 304 303 303 302 302 301
118 111 102 108 116 122 122 120 116 115 113 117 125 137 150 168 185 199 207 231 255 270 275 275 286 304 323 321 328 338 348 337 324 310 300 296 295 299 326 331 320 312 307 308 311 314 314 310 306 304 303 303 303 305 307 309 311 312 313 314 314 314 314 313 312 312 311 310 310 310 309 309 309 308 308 307 306 306 305 304 304 304 303 303 302 301
105 102 95 92 94 100 107 110 112 112 113 121 131 142 151 169 188 204 237 291 294 290 286 292 306 319 321 312 313 323 343 339 328 314 301 296 295 303 341 340 324 313 308 309 313 315 314 309 304 301 300 300 301 302 304 306 308 310 312 313 313 313 313 313 312 312 312 311 311 310 310 309 309 308 307 307 306 305 305 305 304 304 304 303 302 302
90 93 91 86 85 89 98 104 108 112 117 126 129 126 109 109 41 358 356 332 317 307 303 305 304 299 288 283 285 299 350 353 332 310 295 292 298 313 345 339 325 313 307 310 314 316 314 307 303 300 298 298 299 300 302 305 307 309 310 311 312 312 312 312 312 312 312 311 311 310 310 309 308 307 307 306 306 305 305 305 305 304 304 303 303 302
86 90 91 87 86 89 96 104 111 119 125 122 116 104 93 75 31 9 357 332 312 300 294 286 275 264 252 257 264 276 65 37 334 302 291 291 302 315 333 330 321 312 307 312 315 315 312 306 303 300 298 297 298 300 303 305 307 308 309 310 310 311 311 311 312 312 311 311 310 310 309 308 307 307 306 306 305 305 305 305 305 305 305 304 303 302
87 90 92 92 92 94 98 104 112 119 122 123 122 125 130 139 149 170 220 263 276 278 274 268 263 256 250 266 277 282 95 88 352 303 300 299 304 311 320 322 318 313 311 314 316 315 311 305 302 300 297 298 300 303 305 306 306 307 307 308 308 309 309 310 310 310 310 310 309 309 308 307 306 306 306 306 306 306 306 306 306 306 305 305 303 302
91 95 98 100 101 101 99 101 106 114 122 128 132 136 140 157 175 188 196 210 262 283 283 279 280 287 313 297 293 299 89 115 109 312 313 307 305 307 313 320 321 318 315 316 317 315 310 304 300 298 297 301 305 306 306 306 305 305 305 306 306 307 307 308 308 308 308 308 308 307 307 306 306 306 306 306 306 307 307 307 307 307 306 305 303 301
94 97 100 101 100 98 95 96 99 107 116 118 116 115 132 180 201 201 188 131 331 313 303 307 315 325 333 319 318 326 354 130 121 355 328 306 300 301 312 326 328 324 319 317 315 311 304 299 296 296 299 304 308 308 307 306 305 305 304 305 305 306 306 306 307 307 308 307 307 307 306 306 306 306 306 306 307 307 307 308 308 308 307 306 304 300
87 87 87 87 86 85 84 82 83 87 96 102 104 107 127 219 238 208 101 62 9 316 316 332 337 338 337 329 322 315 294 185 112 50 335 305 296 301 318 334 334 329 323 317 311 304 297 292 292 296 304 310 311 310 308 307 306 306 306 306 306 306 306 306 306 307 307 307 307 306 306 306 306 306 306 306 307 307 308 308 309 308 308 306 303 299
84 83 81 79 79 79 80 79 76 74 76 84 90 92 78 7 359 49 73 64 358 306 328 352 349 341 332 317 305 289 258 166 107 63 328 304 298 305 326 335 336 332 327 318 310 303 294 293 297 307 317 319 317 314 311 310 309 308 308 308 308 307 307 307 307 308 307 307 307 306 306 306 306 306 306 307 307 307 308 309 310 309 308 305 302 299
94 92 89 85 82 81 81 81 79 74 71 74 77 76 62 40 41 58 75 76 325 306 330 348 351 342 328 310 298 283 234 127 110 83 323 309 308 315 331 333 332 332 332 324 318 313 308 305 313 323 328 323 319 315 312 312 311 311 310 310 309 309 309 309 309 308 307 307 306 306 306 306 307 307 307 307 307 308 308 310 310 310 307 305 302 300
100 97 95 91 88 85 83 83 83 83 82 81 82 80 72 62 63 72 91 107 297 306 319 331 337 334 325 311 306 304 317 94 108 108 325 312 311 317 327 324 325 328 334 330 324 319 315 313 320 328 330 321 315 311 309 310 311 311 312 312 311 311 311 311 310 309 307 307 307 307 308 308 308 308 307 307 308 308 309 310 311 311 308 305 303 300
95 94 93 93 92 92 90 91 93 97 99 99 96 92 86 83 86 97 120 152 255 285 290 295 296 297 297 297 298 301 312 359 47 46 340 315 306 308 316 313 315 318 321 318 310 306 307 310 317 323 322 315 311 308 307 308 309 311 313 314 312 311 312 312 311 309 308 308 309 309 309 309 309 309 309 309 309 309 310 311 312 311 309 306 303 301
103 104 103 104 104 105 106 108 111 113 115 117 117 114 115 119 129 143 166 190 223 249 261 269 271 274 275 275 275 278 287 302 327 346 343 316 303 300 305 305 307 307 307 300 290 285 287 297 305 310 311 310 309 308 308 307 309 312 315 315 313 312 312 312 312 311 310 310 310 310 310 310 310 310 310 310 311 311 312 312 312 311 309 306 303 301
110 110 109 111 112 114 115 118 122 124 128 131 130 134 139 147 157 172 187 199 213 230 246 257 264 270 274 275 274 274 277 286 312 336 335 312 298 295 301 301 301 302 304 300 294 288 284 290 297 303 307 308 307 306 305 307 310 314 317 315 313 311 311 312 312 312 312 312 311 311 311 311 311 311 312 312 313 313 313 313 312 311 308 305 302 301
112 110 107 106 106 108 111 114 118 124 133 135 136 140 160 181 188 191 197 207 215 225 234 245 254 262 267 272 275 277 280 294 317 329 319 300 290 290 295 293 295 299 302 299 299 297 293 294 298 302 305 306 305 303 302 308 313 315 315 312 310 308 309 311 311 311 311 312 311 311 312 312 313 313 313 314 315 315 314 313 312 310 309 306 304 302
113 109 103 95 93 91 94 99 104 109 117 116 118 130 215 234 230 218 212 217 223 229 234 239 245 250 257 263 268 273 280 293 303 306 298 287 282 282 284 284 289 293 294 294 295 295 295 297 299 301 302 302 303 304 307 313 315 315 312 310 308 307 308 309 309 310 311 311 312 312 312 313 313 313 313 315 315 315 314 314 313 311 310 308 306 303
103 100 93 85 80 76 78 83 84 81 70 66 56 11 290 273 263 251 239 234 235 237 241 243 244 244 246 252 258 265 274 282 286 286 283 279 275 272 272 277 281 282 282 286 290 293 296 298 299 300 299 299 302 307 313 317 316 314 310 310 309 309 307 307 308 309 310 310 310 311 312 313 313 313 313 315 315 315 315 314 314 313 312 310 307 304
89 86 85 78 73 67 65 67 64 54 34 17 359 343 320 307 296 286 274 260 254 250 249 249 249 248 247 252 256 261 267 271 275 278 279 278 273 267 265 270 272 272 271 276 283 289 293 296 299 300 299 299 300 304 308 312 312 311 309 310 308 306 305 306 308 310 309 308 308 310 312 313 314 315 315 316 317 317 317 316 316 315 314 311 308 304
78 76 73 65 57 48 44 43 38 30 12 357 345 331 317 304 294 286 279 271 263 258 257 260 262 262 258 257 257 258 259 262 265 268 270 269 266 263 261 265 268 270 271 273 276 280 284 287 291 295 298 300 301 301 303 304 305 307 309 309 306 303 302 306 308 308 307 306 308 310 312 315 316 316 316 317 319 319 318 317 316 317 317 314 309 305
68 62 60 52 41 30 21 19 13 3 344 330 314 302 294 292 288 283 276 265 258 255 257 262 265 265 259 254 251 249 248 249 251 253 254 249 247 249 256 262 268 274 276 275 274 274 276 280 283 287 290 293 296 298 300 300 302 306 310 309 306 304 306 307 307 305 304 306 309 312 315 316 317 316 316 317 318 318 317 316 316 315 315 313 311 309
58 52 49 43 30 15 2 349 335 317 299 287 276 269 269 283 289 284 275 262 256 258 267 273 272 269 262 248 241 238 235 235 239 243 244 236 235 239 250 257 265 271 275 276 276 275 275 278 282 285 286 288 290 292 293 296 300 303 305 302 300 299 302 302 301 302 303 307 311 314 315 316 316 316 316 315 314 313 312 311 310 310 310 308 307 307
44 38 32 22 6 343 318 298 282 270 262 257 251 249 259 293 299 295 288 282 281 289 304 306 304 299 291 272 250 233 224 225 229 232 232 226 227 232 242 251 259 266 273 276 277 276 274 276 279 282 284 287 290 292 293 295 297 299 298 294 295 296 297 296 298 302 309 311 313 315 315 316 316 316 315 314 311 310 308 307 305 305 304 303 301 299
34 21 4 349 332 312 292 275 261 250 242 239 236 232 234 280 290 293 292 294 300 308 315 318 316 310 303 297 287 271 244 234 236 238 236 227 223 228 243 255 263 269 274 279 281 281 280 278 277 278 282 285 287 289 291 293 294 294 290 290 294 298 300 301 306 311 312 311 312 313 316 317 316 314 312 310 308 306 305 303 301 300 300 299 298 296
19 351 334 317 297 277 261 251 245 240 241 244 241 236 222 253 271 278 280 286 294 301 307 315 310 301 293 290 292 294 293 272 258 252 254 248 240 241 257 268 274 277 280 282 285 288 289 285 282 281 283 284 284 285 286 289 291 291 290 290 291 292 291 299 306 310 309 309 310 314 318 318 316 313 308 305 304 303 303 302 301 299 298 297 296 295
277 289 304 290 279 268 259 253 251 253 251 252 250 249 245 262 269 273 277 283 287 291 297 308 303 294 287 291 297 301 301 299 292 283 273 268 263 262 270 277 281 283 284 283 283 285 288 288 287 286 285 283 281 281 283 285 287 287 288 289 289 289 288 294 300 304 306 308 311 315 319 319 316 311 306 304 303 303 302 302 301 300 299 298 296 295
236 258 270 278 285 290 294 294 286 270 255 245 240 241 253 265 266 267 271 277 281 285 292 294 289 285 286 292 297 300 301 303 304 304 302 299 296 292 289 289 289 288 286 283 281 279 278 281 284 288 289 286 281 278 277 281 284 287 290 293 294 295 295 297 299 302 306 309 312 315 319 319 314 309 304 303 303 302 301 301 300 300 300 299 298 296
268 279 277 286 293 299 298 294 282 269 257 248 243 238 248 266 271 273 273 277 280 282 285 280 277 278 284 291 295 299 303 305 306 306 308 307 307 307 305 300 295 290 286 283 281 278 275 275 277 281 285 285 284 281 278 280 283 287 292 296 298 299 298 299 301 304 307 309 312 316 319 317 312 307 304 303 302 300 300 300 299 299 299 298 298 297
302 297 290 288 286 287 289 285 279 270 265 261 256 251 250 272 286 291 287 285 285 284 282 280 279 280 285 289 295 300 304 305 306 307 308 308 308 308 308 305 300 294 288 284 281 279 277 273 271 271 272 274 278 280 283 284 286 288 291 296 298 299 299 300 303 307 309 310 312 314 315 313 309 307 305 303 301 299 299 299 299 299 298 298 297 297
285 283 281 275 267 265 270 278 276 270 263 265 266 267 266 272 282 285 287 287 285 282 280 282 284 285 286 290 295 300 304 305 306 307 309 310 312 312 312 309 305 301 296 291 287 284 281 275 268 263 260 262 268 275 282 285 288 290 293 296 298 299 299 301 305 309 311 311 311 310 308 304 301 300 300 299 298 298 299 300 300 300 299 299 298 298
273 273 274 271 268 263 261 267 268 266 262 265 270 276 281 280 276 274 276 277 277 277 279 281 283 286 288 293 297 301 304 306 306 307 310 313 314 314 313 312 310 307 303 300 299 298 295 287 275 264 255 253 258 268 279 285 290 293 295 296 297 299 300 303 307 310 312 310 309 308 304 300 296 293 292 293 295 297 299 300 300 300 301 301 300 299
268 266 259 256 257 258 257 257 257 257 259 267 275 282 283 279 274 270 268 271 273 274 274 275 277 281 286 292 296 300 302 304 306 308 311 313 314 314 313 312 312 312 311 311 311 311 309 307 301 290 272 260 258 264 279 289 296 298 298 297 298 301 303 305 307 309 309 308 307 305 303 299 296 294 294 295 297 298 299 299 299 300 302 304 303 301